| time (UTC) | temp F | wind direction | speed MPH | gust MPH | rain 1hr in | rain 24hr in | rain mn in | humidity % | barometer mb |
| 20260902215010 | 71 | 330 | 0.0 | 0.0 | 0.00 | 0.00 | 0.00 | 69 | 1021.2 |
| 20260902214524 | 72 | 332 | 0.0 | 5.0 | 0.00 | 0.00 | 0.00 | 68 | 1021.2 |
| 20260902214012 | 72 | 332 | 0.0 | 5.0 | 0.00 | 0.00 | 0.00 | 68 | 1021.1 |
| 20260902213514 | 72 | 22 | 0.0 | 4.0 | 0.00 | 0.00 | 0.00 | 69 | 1021.1 |
| 20260902213030 | 72 | 290 | 0.0 | 4.0 | 0.00 | 0.00 | 0.00 | 69 | 1021.3 |
| 20260902212518 | 72 | 342 | 0.0 | 6.0 | 0.00 | 0.00 | 0.00 | 71 | 1021.2 |
| 20260902212018 | 72 | 342 | 0.0 | 6.0 | 0.00 | 0.00 | 0.00 | 70 | 1021.3 |
| 20260902211533 | 72 | 207 | 0.0 | 4.0 | 0.00 | 0.00 | 0.00 | 70 | 1021.2 |
| 20260902211006 | 73 | 13 | 0.0 | 6.0 | 0.00 | 0.00 | 0.00 | 70 | 1021.0 |
| 20260902210505 | 73 | 294 | 0.0 | 6.0 | 0.00 | 0.00 | 0.00 | 70 | 1020.9 |
| 20260902210019 | 73 | 336 | 0.0 | 6.0 | 0.00 | 0.00 | 0.00 | 69 | 1020.8 |
| 20260902205508 | 73 | 335 | 0.0 | 6.0 | 0.00 | 0.00 | 0.00 | 71 | 1020.9 |
| 20260902205011 | 73 | 205 | 0.0 | 6.0 | 0.00 | 0.00 | 0.00 | 70 | 1021.1 |
| 20260902204525 | 73 | 333 | 0.0 | 4.0 | 0.00 | 0.00 | 0.00 | 70 | 1021.2 |
| 20260902204010 | 74 | 270 | 0.0 | 7.0 | 0.00 | 0.00 | 0.00 | 70 | 1021.3 |
| 20260902203512 | 74 | 6 | 0.0 | 9.0 | 0.00 | 0.00 | 0.00 | 69 | 1021.3 |
| 20260902203028 | 74 | 67 | 2.0 | 9.0 | 0.00 | 0.00 | 0.00 | 68 | 1021.5 |
| 20260902202515 | 75 | 304 | 0.0 | 8.0 | 0.00 | 0.00 | 0.00 | 69 | 1021.6 |
| 20260902202015 | 75 | 326 | 0.0 | 7.0 | 0.00 | 0.00 | 0.00 | 69 | 1021.4 |
| 20260902201543 | 75 | 24 | 1.0 | 9.0 | 0.00 | 0.00 | 0.00 | 69 | 1021.5 |
| 20260902201017 | 75 | 10 | 4.0 | 9.0 | 0.00 | 0.00 | 0.00 | 69 | 1021.6 |
| 20260902200516 | 75 | 4 | 0.0 | 8.0 | 0.00 | 0.00 | 0.00 | 70 | 1021.7 |
| 20260902200013 | 75 | 356 | 2.0 | 8.0 | 0.00 | 0.00 | 0.00 | 68 | 1021.8 |
| 20260902195511 | 75 | 345 | 2.0 | 10.0 | 0.00 | 0.00 | 0.00 | 70 | 1021.8 |
| 20260902195008 | 74 | 314 | 2.0 | 10.0 | 0.00 | 0.00 | 0.00 | 71 | 1021.7 |
| 20260902194528 | 74 | 1 | 0.0 | 9.0 | 0.00 | 0.00 | 0.00 | 72 | 1021.6 |
| 20260902194009 | 73 | 41 | 1.0 | 7.0 | 0.00 | 0.00 | 0.00 | 74 | 1021.8 |
| 20260902193502 | 73 | 317 | 0.0 | 8.0 | 0.00 | 0.00 | 0.00 | 75 | 1021.7 |
| 20260902193014 | 73 | 16 | 0.0 | 8.0 | 0.00 | 0.00 | 0.00 | 75 | 1021.8 |
| 20260902192503 | 73 | 359 | 0.0 | 6.0 | 0.00 | 0.00 | 0.00 | 75 | 1021.8 |
| 20260902192004 | 73 | 28 | 0.0 | 6.0 | 0.00 | 0.00 | 0.00 | 75 | 1022.0 |
| 20260902191505 | 73 | 1 | 0.0 | 7.0 | 0.00 | 0.00 | 0.00 | 75 | 1022.0 |
| 20260902191004 | 73 | 17 | 1.0 | 7.0 | 0.00 | 0.00 | 0.00 | 74 | 1021.9 |
| 20260902190504 | 74 | 19 | 0.0 | 4.0 | 0.00 | 0.00 | 0.00 | 73 | 1022.0 |
| 20260902190012 | 74 | 359 | 0.0 | 7.0 | 0.00 | 0.00 | 0.00 | 74 | 1022.0 |
| 20260902185506 | 74 | 360 | 0.0 | 7.0 | 0.00 | 0.00 | 0.00 | 73 | 1022.0 |
| 20260902185006 | 74 | 59 | 1.0 | 7.0 | 0.00 | 0.00 | 0.00 | 72 | 1021.9 |
| 20260902184516 | 75 | 358 | 0.0 | 2.0 | 0.00 | 0.00 | 0.00 | 72 | 1021.8 |
| 20260902184009 | 75 | 63 | 0.0 | 2.0 | 0.00 | 0.00 | 0.00 | 72 | 1021.8 |
| 20260902183511 | 74 | 22 | 0.0 | 5.0 | 0.00 | 0.00 | 0.00 | 73 | 1021.9 |
| 20260902183026 | 74 | 342 | 0.0 | 5.0 | 0.00 | 0.00 | 0.00 | 71 | 1022.0 |
| 20260902182511 | 74 | 352 | 0.0 | 5.0 | 0.00 | 0.00 | 0.00 | 73 | 1021.9 |
| 20260902182002 | 74 | 238 | 0.0 | 5.0 | 0.00 | 0.00 | 0.00 | 73 | 1021.7 |
| 20260902181504 | 74 | 360 | 0.0 | 5.0 | 0.00 | 0.00 | 0.00 | 73 | 1021.8 |
| 20260902181004 | 74 | 32 | 0.0 | 5.0 | 0.00 | 0.00 | 0.00 | 73 | 1021.8 |
| 20260902180503 | 73 | 350 | 0.0 | 6.0 | 0.00 | 0.00 | 0.00 | 73 | 1021.8 |
| 20260902180007 | 73 | 7 | 1.0 | 6.0 | 0.00 | 0.00 | 0.00 | 74 | 1021.8 |
| 20260902175504 | 73 | 348 | 0.0 | 1.0 | 0.00 | 0.00 | 0.00 | 77 | 1022.0 |
| 20260902175007 | 73 | 343 | 0.0 | 5.0 | 0.00 | 0.00 | 0.00 | 78 | 1022.0 |
| 20260902174510 | 73 | 297 | 0.0 | 7.0 | 0.00 | 0.00 | 0.00 | 78 | 1022.1 |
| 20260902174004 | 73 | 354 | 2.0 | 7.0 | 0.00 | 0.00 | 0.00 | 76 | 1022.0 |
| 20260902173508 | 72 | 10 | 2.0 | 7.0 | 0.00 | 0.00 | 0.00 | 77 | 1022.0 |
| 20260902173022 | 72 | 46 | 0.0 | 6.0 | 0.00 | 0.00 | 0.00 | 77 | 1022.1 |
| 20260902172509 | 72 | 17 | 0.0 | 1.0 | 0.00 | 0.00 | 0.00 | 77 | 1022.1 |
| 20260902172010 | 72 | 31 | 0.0 | 0.0 | 0.00 | 0.00 | 0.00 | 79 | 1022.2 |
| 20260902171524 | 72 | 31 | 0.0 | 3.0 | 0.00 | 0.00 | 0.00 | 80 | 1022.2 |
| 20260902171011 | 72 | 31 | 0.0 | 3.0 | 0.00 | 0.00 | 0.00 | 80 | 1022.3 |
| 20260902170518 | 72 | 88 | 0.0 | 2.0 | 0.00 | 0.00 | 0.00 | 79 | 1022.4 |
| 20260902170004 | 72 | 17 | 0.0 | 2.0 | 0.00 | 0.00 | 0.00 | 78 | 1022.4 |
| 20260902165507 | 72 | 15 | 0.0 | 0.0 | 0.00 | 0.00 | 0.00 | 78 | 1022.5 |
| 20260902165005 | 72 | 13 | 0.0 | 6.0 | 0.00 | 0.00 | 0.00 | 77 | 1022.5 |
| 20260902164508 | 72 | 13 | 0.0 | 6.0 | 0.00 | 0.00 | 0.00 | 77 | 1022.4 |
| 20260902164003 | 72 | 12 | 0.0 | 4.0 | 0.00 | 0.00 | 0.00 | 78 | 1022.3 |
| 20260902163505 | 72 | 359 | 0.0 | 3.0 | 0.00 | 0.00 | 0.00 | 80 | 1022.3 |
| 20260902163016 | 72 | 1 | 0.0 | 3.0 | 0.00 | 0.00 | 0.00 | 78 | 1022.5 |
| 20260902162509 | 72 | 360 | 0.0 | 0.0 | 0.00 | 0.00 | 0.00 | 80 | 1022.7 |
| 20260902162013 | 72 | 360 | 0.0 | 0.0 | 0.00 | 0.00 | 0.00 | 80 | 1022.6 |
| 20260902161523 | 72 | 332 | 0.0 | 2.0 | 0.00 | 0.00 | 0.00 | 77 | 1022.8 |
| 20260902161009 | 72 | 331 | 0.0 | 3.0 | 0.00 | 0.00 | 0.00 | 77 | 1022.8 |
| 20260902160512 | 72 | 328 | 0.0 | 3.0 | 0.00 | 0.00 | 0.00 | 76 | 1022.9 |
| 20260902160027 | 72 | 339 | 0.0 | 0.0 | 0.00 | 0.00 | 0.00 | 78 | 1023.1 |
| 20260902155516 | 72 | 339 | 0.0 | 0.0 | 0.00 | 0.00 | 0.00 | 77 | 1023.1 |
| 20260902155019 | 72 | 219 | 0.0 | 0.0 | 0.00 | 0.00 | 0.00 | 76 | 1023.1 |
| 20260902154505 | 72 | 266 | 0.0 | 4.0 | 0.00 | 0.00 | 0.00 | 78 | 1023.2 |
| 20260902154006 | 72 | 266 | 0.0 | 4.0 | 0.00 | 0.00 | 0.00 | 78 | 1023.2 |
| 20260902153504 | 72 | 280 | 0.0 | 7.0 | 0.00 | 0.00 | 0.00 | 78 | 1023.3 |
| 20260902153029 | 72 | 342 | 0.0 | 7.0 | 0.00 | 0.00 | 0.00 | 78 | 1023.3 |
| 20260902152507 | 72 | 44 | 1.0 | 5.0 | 0.00 | 0.00 | 0.00 | 79 | 1023.2 |
| 20260902152006 | 71 | 359 | 0.0 | 4.0 | 0.00 | 0.00 | 0.00 | 81 | 1023.3 |
| 20260902151518 | 71 | 335 | 0.0 | 7.0 | 0.00 | 0.00 | 0.00 | 82 | 1023.3 |
| 20260902151012 | 71 | 335 | 0.0 | 7.0 | 0.00 | 0.00 | 0.00 | 81 | 1023.3 |
| 20260902150507 | 70 | 11 | 0.0 | 5.0 | 0.00 | 0.00 | 0.00 | 83 | 1023.3 |
| 20260902150025 | 70 | 6 | 0.0 | 3.0 | 0.00 | 0.00 | 0.00 | 87 | 1023.5 |
| 20260902145513 | 69 | 352 | 0.0 | 3.0 | 0.00 | 0.00 | 0.00 | 86 | 1023.5 |
| 20260902145014 | 69 | 352 | 0.0 | 3.0 | 0.00 | 0.00 | 0.00 | 87 | 1023.5 |
| 20260902144529 | 69 | 347 | 0.0 | 1.0 | 0.00 | 0.00 | 0.00 | 86 | 1023.6 |
| 20260902144016 | 68 | 341 | 0.0 | 2.0 | 0.00 | 0.00 | 0.00 | 87 | 1023.4 |
| 20260902143515 | 68 | 344 | 0.0 | 3.0 | 0.00 | 0.00 | 0.00 | 87 | 1023.2 |
| 20260902143033 | 68 | 238 | 0.0 | 3.0 | 0.00 | 0.00 | 0.00 | 88 | 1023.2 |
| 20260902142504 | 68 | 23 | 0.0 | 3.0 | 0.00 | 0.00 | 0.00 | 88 | 1023.1 |
| 20260902142005 | 68 | 1 | 0.0 | 3.0 | 0.00 | 0.00 | 0.00 | 88 | 1023.1 |
| 20260902141514 | 68 | 1 | 0.0 | 5.0 | 0.00 | 0.00 | 0.00 | 88 | 1023.1 |
| 20260902141007 | 67 | 333 | 0.0 | 5.0 | 0.00 | 0.00 | 0.00 | 90 | 1023.0 |
| 20260902140507 | 67 | 305 | 0.0 | 5.0 | 0.00 | 0.00 | 0.00 | 90 | 1022.9 |
| 20260902140019 | 67 | 342 | 0.0 | 5.0 | 0.00 | 0.01 | 0.00 | 90 | 1022.9 |
| 20260902135511 | 67 | 1 | 0.0 | 4.0 | 0.00 | 0.01 | 0.00 | 92 | 1022.7 |
| 20260902135012 | 66 | 2 | 0.0 | 4.0 | 0.00 | 0.01 | 0.00 | 93 | 1022.5 |
| 20260902134533 | 66 | 1 | 0.0 | 1.0 | 0.00 | 0.01 | 0.00 | 93 | 1022.6 |
| 20260902134014 | 66 | 1 | 0.0 | 2.0 | 0.00 | 0.01 | 0.00 | 94 | 1022.6 |
| 20260902133514 | 66 | 1 | 0.0 | 5.0 | 0.00 | 0.01 | 0.00 | 94 | 1022.5 |
| 20260902133028 | 65 | 1 | 0.0 | 5.0 | 0.00 | 0.01 | 0.00 | 95 | 1022.5 |
| 20260902132520 | 65 | 30 | 0.0 | 1.0 | 0.00 | 0.01 | 0.00 | 95 | 1022.6 |
| 20260902132014 | 65 | 30 | 0.0 | 1.0 | 0.00 | 0.01 | 0.00 | 95 | 1022.6 |
| 20260902131541 | 65 | 145 | 0.0 | 0.0 | 0.00 | 0.01 | 0.00 | 95 | 1022.5 |
| 20260902131004 | 64 | 145 | 0.0 | 0.0 | 0.00 | 0.01 | 0.00 | 95 | 1022.6 |
| 20260902130505 | 64 | 154 | 0.0 | 0.0 | 0.00 | 0.01 | 0.00 | 95 | 1022.8 |
| 20260902130014 | 64 | 154 | 0.0 | 0.0 | 0.00 | 0.01 | 0.00 | 95 | 1022.9 |
| 20260902125510 | 64 | 154 | 0.0 | 0.0 | 0.00 | 0.01 | 0.00 | 96 | 1022.9 |
| 20260902125008 | 64 | 154 | 0.0 | 0.0 | 0.00 | 0.01 | 0.00 | 96 | 1022.8 |
| 20260902124523 | 64 | 156 | 0.0 | 0.0 | 0.00 | 0.01 | 0.00 | 96 | 1022.8 |
| 20260902124011 | 64 | 156 | 0.0 | 0.0 | 0.00 | 0.01 | 0.00 | 96 | 1022.9 |
| 20260902123511 | 64 | 156 | 0.0 | 0.0 | 0.00 | 0.01 | 0.00 | 96 | 1022.9 |
| 20260902123033 | 63 | 156 | 0.0 | 0.0 | 0.00 | 0.01 | 0.00 | 96 | 1022.9 |
| 20260902122517 | 63 | 156 | 0.0 | 0.0 | 0.00 | 0.01 | 0.00 | 96 | 1022.9 |
| 20260902122014 | 63 | 156 | 0.0 | 0.0 | 0.00 | 0.01 | 0.00 | 96 | 1022.9 |
| 20260902121531 | 63 | 156 | 0.0 | 0.0 | 0.00 | 0.01 | 0.00 | 96 | 1022.9 |
| 20260902121020 | 63 | 156 | 0.0 | 0.0 | 0.00 | 0.01 | 0.00 | 96 | 1022.9 |
| 20260902120517 | 63 | 156 | 0.0 | 0.0 | 0.00 | 0.01 | 0.00 | 96 | 1022.8 |
| 20260902120033 | 63 | 156 | 0.0 | 0.0 | 0.00 | 0.01 | 0.00 | 96 | 1022.9 |
| 20260902115518 | 63 | 156 | 0.0 | 0.0 | 0.00 | 0.01 | 0.00 | 96 | 1023.0 |
| 20260902115009 | 63 | 156 | 0.0 | 0.0 | 0.00 | 0.01 | 0.00 | 96 | 1023.0 |
| 20260902114516 | 63 | 156 | 0.0 | 0.0 | 0.00 | 0.01 | 0.00 | 96 | 1023.1 |
| 20260902114010 | 63 | 156 | 0.0 | 0.0 | 0.00 | 0.01 | 0.00 | 96 | 1023.1 |
| 20260902113510 | 63 | 156 | 0.0 | 0.0 | 0.00 | 0.01 | 0.00 | 96 | 1023.1 |
| 20260902113029 | 63 | 156 | 0.0 | 0.0 | 0.00 | 0.01 | 0.00 | 96 | 1023.1 |
| 20260902112512 | 63 | 156 | 0.0 | 0.0 | 0.00 | 0.01 | 0.00 | 96 | 1023.1 |
| 20260902112012 | 63 | 156 | 0.0 | 0.0 | 0.00 | 0.01 | 0.00 | 96 | 1023.0 |
| 20260902111528 | 63 | 156 | 0.0 | 0.0 | 0.00 | 0.01 | 0.00 | 96 | 1022.9 |
| 20260902111016 | 63 | 156 | 0.0 | 0.0 | 0.00 | 0.01 | 0.00 | 96 | 1022.8 |
| 20260902110520 | 63 | 156 | 0.0 | 0.0 | 0.00 | 0.01 | 0.00 | 96 | 1022.8 |
| 20260902110005 | 63 | 156 | 0.0 | 0.0 | 0.00 | 0.01 | 0.00 | 96 | 1022.9 |
| 20260902105506 | 63 | 156 | 0.0 | 0.0 | 0.00 | 0.01 | 0.00 | 96 | 1022.8 |
| 20260902105004 | 63 | 156 | 0.0 | 0.0 | 0.00 | 0.01 | 0.00 | 96 | 1022.7 |
| 20260902104501 | 63 | 156 | 0.0 | 0.0 | 0.00 | 0.01 | 0.00 | 96 | 1022.5 |
| 20260902104004 | 63 | 156 | 0.0 | 0.0 | 0.00 | 0.01 | 0.00 | 96 | 1022.4 |
| 20260902103503 | 63 | 156 | 0.0 | 0.0 | 0.00 | 0.01 | 0.00 | 96 | 1022.3 |
| 20260902103006 | 63 | 156 | 0.0 | 0.0 | 0.00 | 0.01 | 0.00 | 96 | 1022.2 |
| 20260902102503 | 63 | 156 | 0.0 | 0.0 | 0.00 | 0.01 | 0.00 | 96 | 1022.3 |
| 20260902102003 | 63 | 156 | 0.0 | 0.0 | 0.00 | 0.01 | 0.00 | 96 | 1022.2 |
| 20260902101504 | 63 | 156 | 0.0 | 0.0 | 0.00 | 0.01 | 0.00 | 96 | 1022.1 |
| 20260902101004 | 63 | 156 | 0.0 | 0.0 | 0.00 | 0.01 | 0.00 | 96 | 1022.1 |
| 20260902100504 | 63 | 156 | 0.0 | 0.0 | 0.00 | 0.01 | 0.00 | 96 | 1022.0 |
| 20260902100007 | 63 | 156 | 0.0 | 0.0 | 0.00 | 0.01 | 0.00 | 96 | 1022.1 |
| 20260902095504 | 63 | 156 | 0.0 | 0.0 | 0.00 | 0.01 | 0.00 | 96 | 1022.1 |
| 20260902095003 | 63 | 156 | 0.0 | 0.0 | 0.00 | 0.01 | 0.00 | 96 | 1022.0 |
| 20260902094505 | 63 | 156 | 0.0 | 0.0 | 0.00 | 0.01 | 0.00 | 96 | 1021.9 |
| 20260902094004 | 63 | 156 | 0.0 | 0.0 | 0.00 | 0.01 | 0.00 | 96 | 1021.8 |
| 20260902093504 | 63 | 156 | 0.0 | 0.0 | 0.00 | 0.01 | 0.00 | 96 | 1021.8 |
| 20260902093004 | 63 | 156 | 0.0 | 0.0 | 0.00 | 0.01 | 0.00 | 96 | 1021.6 |
| 20260902092508 | 63 | 156 | 0.0 | 0.0 | 0.00 | 0.01 | 0.00 | 96 | 1021.7 |
| 20260902092005 | 63 | 156 | 0.0 | 0.0 | 0.00 | 0.01 | 0.00 | 96 | 1021.8 |
| 20260902091506 | 63 | 156 | 0.0 | 0.0 | 0.00 | 0.01 | 0.00 | 96 | 1021.7 |
| 20260902091006 | 63 | 156 | 0.0 | 0.0 | 0.00 | 0.01 | 0.00 | 96 | 1021.6 |
| 20260902090507 | 63 | 156 | 0.0 | 0.0 | 0.00 | 0.01 | 0.00 | 96 | 1021.6 |
| 20260902090007 | 63 | 156 | 0.0 | 0.0 | 0.00 | 0.01 | 0.00 | 96 | 1021.6 |
| 20260902085506 | 63 | 156 | 0.0 | 0.0 | 0.00 | 0.01 | 0.00 | 96 | 1021.6 |
| 20260902085003 | 63 | 156 | 0.0 | 0.0 | 0.00 | 0.01 | 0.00 | 96 | 1021.6 |
| 20260902084508 | 63 | 156 | 0.0 | 0.0 | 0.00 | 0.01 | 0.00 | 96 | 1021.6 |
| 20260902084006 | 63 | 156 | 0.0 | 0.0 | 0.00 | 0.01 | 0.00 | 96 | 1021.5 |
| 20260902083506 | 63 | 156 | 0.0 | 0.0 | 0.00 | 0.01 | 0.00 | 96 | 1021.2 |
| 20260902083005 | 63 | 156 | 0.0 | 0.0 | 0.00 | 0.01 | 0.00 | 96 | 1021.1 |
| 20260902082504 | 63 | 156 | 0.0 | 0.0 | 0.00 | 0.01 | 0.00 | 96 | 1021.1 |
| 20260902082003 | 63 | 156 | 0.0 | 0.0 | 0.00 | 0.01 | 0.00 | 96 | 1021.4 |
| 20260902081509 | 63 | 156 | 0.0 | 0.0 | 0.00 | 0.01 | 0.00 | 96 | 1021.5 |
| 20260902081005 | 63 | 156 | 0.0 | 0.0 | 0.00 | 0.01 | 0.00 | 96 | 1021.6 |
| 20260902080504 | 63 | 156 | 0.0 | 0.0 | 0.00 | 0.01 | 0.00 | 96 | 1021.6 |
| 20260902080006 | 63 | 156 | 0.0 | 0.0 | 0.00 | 0.01 | 0.00 | 96 | 1021.6 |
| 20260902075504 | 63 | 156 | 0.0 | 0.0 | 0.00 | 0.01 | 0.00 | 96 | 1021.7 |
| 20260902075004 | 63 | 156 | 0.0 | 0.0 | 0.00 | 0.01 | 0.00 | 96 | 1021.7 |
| 20260902074508 | 63 | 156 | 0.0 | 0.0 | 0.00 | 0.01 | 0.00 | 96 | 1021.7 |
| 20260902074004 | 63 | 156 | 0.0 | 0.0 | 0.00 | 0.01 | 0.00 | 96 | 1021.8 |
| 20260902073504 | 63 | 156 | 0.0 | 0.0 | 0.00 | 0.01 | 0.00 | 96 | 1021.8 |
| 20260902073014 | 63 | 156 | 0.0 | 0.0 | 0.00 | 0.01 | 0.00 | 96 | 1021.9 |
| 20260902072505 | 63 | 156 | 0.0 | 0.0 | 0.00 | 0.01 | 0.00 | 96 | 1022.0 |
| 20260902072006 | 63 | 156 | 0.0 | 0.0 | 0.00 | 0.01 | 0.00 | 96 | 1022.0 |
| 20260902071509 | 63 | 156 | 0.0 | 0.0 | 0.00 | 0.01 | 0.00 | 96 | 1021.9 |
| 20260902071006 | 63 | 156 | 0.0 | 0.0 | 0.00 | 0.01 | 0.00 | 96 | 1021.6 |
| 20260902070504 | 63 | 156 | 0.0 | 0.0 | 0.00 | 0.01 | 0.00 | 96 | 1021.5 |
| 20260902070013 | 63 | 156 | 0.0 | 0.0 | 0.00 | 0.01 | 0.00 | 96 | 1021.4 |
| 20260902065505 | 63 | 156 | 0.0 | 0.0 | 0.00 | 0.01 | 0.00 | 96 | 1021.4 |
| 20260902065007 | 63 | 156 | 0.0 | 0.0 | 0.00 | 0.01 | 0.00 | 96 | 1021.4 |
| 20260902064508 | 63 | 156 | 0.0 | 0.0 | 0.00 | 0.01 | 0.00 | 96 | 1021.4 |
| 20260902064003 | 63 | 156 | 0.0 | 0.0 | 0.00 | 0.01 | 0.00 | 96 | 1021.4 |
| 20260902063509 | 63 | 156 | 0.0 | 0.0 | 0.00 | 0.01 | 0.00 | 96 | 1021.5 |
| 20260902063011 | 63 | 156 | 0.0 | 0.0 | 0.00 | 0.01 | 0.00 | 96 | 1021.5 |
| 20260902062507 | 63 | 156 | 0.0 | 0.0 | 0.00 | 0.01 | 0.00 | 96 | 1021.5 |
| 20260902062004 | 63 | 156 | 0.0 | 0.0 | 0.00 | 0.01 | 0.00 | 96 | 1021.5 |
| 20260902061529 | 63 | 156 | 0.0 | 0.0 | 0.00 | 0.01 | 0.00 | 96 | 1021.5 |
| 20260902061007 | 63 | 156 | 0.0 | 0.0 | 0.00 | 0.01 | 0.00 | 96 | 1021.5 |
| 20260902060507 | 63 | 156 | 0.0 | 0.0 | 0.00 | 0.01 | 0.00 | 96 | 1021.5 |
| 20260902060012 | 63 | 156 | 0.0 | 0.0 | 0.00 | 0.01 | 0.00 | 96 | 1021.6 |
| 20260902055505 | 63 | 156 | 0.0 | 0.0 | 0.00 | 0.01 | 0.00 | 96 | 1021.5 |
| 20260902055008 | 63 | 156 | 0.0 | 0.0 | 0.00 | 0.01 | 0.00 | 96 | 1021.6 |
| 20260902054517 | 63 | 156 | 0.0 | 0.0 | 0.00 | 0.01 | 0.00 | 96 | 1021.5 |
| 20260902054005 | 63 | 156 | 0.0 | 0.0 | 0.00 | 0.01 | 0.00 | 96 | 1021.4 |
| 20260902053507 | 63 | 156 | 0.0 | 0.0 | 0.00 | 0.01 | 0.00 | 96 | 1021.4 |
| 20260902053014 | 63 | 156 | 0.0 | 0.0 | 0.00 | 0.01 | 0.00 | 96 | 1021.5 |
| 20260902052504 | 63 | 156 | 0.0 | 0.0 | 0.00 | 0.01 | 0.00 | 96 | 1021.5 |
| 20260902052007 | 63 | 156 | 0.0 | 0.0 | 0.00 | 0.01 | 0.00 | 96 | 1021.4 |
| 20260902051512 | 63 | 156 | 0.0 | 0.0 | 0.00 | 0.01 | 0.00 | 96 | 1021.3 |
| 20260902051014 | 63 | 156 | 0.0 | 0.0 | 0.00 | 0.01 | 0.00 | 96 | 1021.2 |
| 20260902050506 | 63 | 156 | 0.0 | 0.0 | 0.00 | 0.01 | 0.00 | 96 | 1021.2 |
| 20260902050017 | 63 | 156 | 0.0 | 0.0 | 0.00 | 0.01 | 0.00 | 96 | 1021.1 |
| 20260902045507 | 63 | 156 | 0.0 | 0.0 | 0.00 | 0.01 | 0.00 | 96 | 1021.0 |
| 20260902045002 | 63 | 156 | 0.0 | 0.0 | 0.00 | 0.01 | 0.00 | 96 | 1020.9 |
| 20260902044503 | 63 | 156 | 0.0 | 0.0 | 0.00 | 0.01 | 0.00 | 96 | 1020.8 |
| 20260902044004 | 63 | 156 | 0.0 | 0.0 | 0.00 | 0.01 | 0.00 | 96 | 1020.8 |
| 20260902043503 | 63 | 156 | 0.0 | 0.0 | 0.00 | 0.01 | 0.00 | 96 | 1020.7 |
| 20260902043004 | 63 | 156 | 0.0 | 0.0 | 0.00 | 0.01 | 0.00 | 96 | 1020.7 |
| 20260902042503 | 63 | 156 | 0.0 | 0.0 | 0.00 | 0.01 | 0.00 | 96 | 1020.7 |
| 20260902042004 | 63 | 156 | 0.0 | 0.0 | 0.00 | 0.01 | 0.00 | 96 | 1020.7 |
| 20260902041506 | 63 | 156 | 0.0 | 0.0 | 0.00 | 0.01 | 0.00 | 96 | 1020.6 |
| 20260902041004 | 63 | 156 | 0.0 | 0.0 | 0.00 | 0.01 | 0.00 | 96 | 1020.6 |
| 20260902040505 | 63 | 156 | 0.0 | 0.0 | 0.00 | 0.01 | 0.00 | 96 | 1020.5 |
| 20260902040013 | 63 | 156 | 0.0 | 0.0 | 0.00 | 0.01 | 0.00 | 95 | 1020.5 |
| 20260902035506 | 63 | 156 | 0.0 | 0.0 | 0.00 | 0.01 | 0.01 | 95 | 1020.3 |
| 20260902035007 | 63 | 156 | 0.0 | 0.0 | 0.00 | 0.01 | 0.01 | 95 | 1020.2 |
| 20260902034516 | 63 | 156 | 0.0 | 0.0 | 0.00 | 0.01 | 0.01 | 95 | 1020.2 |
| 20260902034007 | 63 | 156 | 0.0 | 0.0 | 0.00 | 0.01 | 0.01 | 95 | 1020.1 |
| 20260902033510 | 63 | 156 | 0.0 | 0.0 | 0.00 | 0.01 | 0.01 | 96 | 1019.9 |
| 20260902033003 | 63 | 156 | 0.0 | 0.0 | 0.00 | 0.01 | 0.01 | 96 | 1019.8 |
| 20260902032504 | 63 | 156 | 0.0 | 0.0 | 0.00 | 0.01 | 0.01 | 96 | 1019.8 |
| 20260902032002 | 63 | 156 | 0.0 | 0.0 | 0.00 | 0.01 | 0.01 | 96 | 1019.9 |
| 20260902031507 | 63 | 156 | 0.0 | 0.0 | 0.00 | 0.01 | 0.01 | 96 | 1019.9 |
| 20260902031004 | 63 | 156 | 0.0 | 0.0 | 0.00 | 0.01 | 0.01 | 96 | 1020.0 |
| 20260902030506 | 64 | 156 | 0.0 | 0.0 | 0.00 | 0.01 | 0.01 | 96 | 1020.1 |
| 20260902030007 | 64 | 156 | 0.0 | 0.0 | 0.00 | 0.01 | 0.01 | 96 | 1020.1 |
| 20260902025505 | 64 | 156 | 0.0 | 0.0 | 0.00 | 0.01 | 0.01 | 96 | 1020.1 |
| 20260902025004 | 64 | 156 | 0.0 | 0.0 | 0.00 | 0.01 | 0.01 | 96 | 1020.2 |
| 20260902024512 | 64 | 156 | 0.0 | 0.0 | 0.00 | 0.01 | 0.01 | 96 | 1020.1 |
| 20260902024005 | 64 | 156 | 0.0 | 0.0 | 0.00 | 0.01 | 0.01 | 96 | 1020.1 |
| 20260902023507 | 64 | 156 | 0.0 | 0.0 | 0.00 | 0.01 | 0.01 | 96 | 1020.1 |
| 20260902023018 | 64 | 156 | 0.0 | 0.0 | 0.00 | 0.01 | 0.01 | 96 | 1020.1 |
| 20260902022510 | 64 | 156 | 0.0 | 0.0 | 0.00 | 0.01 | 0.01 | 96 | 1020.2 |
| 20260902022011 | 64 | 156 | 0.0 | 0.0 | 0.00 | 0.01 | 0.01 | 96 | 1020.4 |
| 20260902021521 | 64 | 156 | 0.0 | 0.0 | 0.00 | 0.01 | 0.01 | 96 | 1020.3 |
| 20260902021006 | 64 | 156 | 0.0 | 0.0 | 0.00 | 0.01 | 0.01 | 96 | 1020.2 |
| 20260902020504 | 64 | 156 | 0.0 | 0.0 | 0.00 | 0.01 | 0.01 | 96 | 1020.1 |
| 20260902020006 | 64 | 156 | 0.0 | 0.0 | 0.00 | 0.01 | 0.01 | 95 | 1020.1 |
| 20260902015504 | 64 | 156 | 0.0 | 0.0 | 0.00 | 0.01 | 0.01 | 95 | 1019.9 |
| 20260902015005 | 64 | 156 | 0.0 | 0.0 | 0.00 | 0.01 | 0.01 | 95 | 1019.8 |
| 20260902014507 | 64 | 156 | 0.0 | 0.0 | 0.00 | 0.01 | 0.01 | 95 | 1019.9 |
| 20260902014007 | 64 | 156 | 0.0 | 0.0 | 0.00 | 0.01 | 0.01 | 95 | 1020.0 |
| 20260902013506 | 64 | 156 | 0.0 | 0.0 | 0.00 | 0.01 | 0.01 | 95 | 1020.0 |
| 20260902013014 | 64 | 156 | 0.0 | 0.0 | 0.00 | 0.01 | 0.01 | 95 | 1020.0 |
| 20260902012507 | 64 | 156 | 0.0 | 0.0 | 0.00 | 0.01 | 0.01 | 95 | 1020.0 |
| 20260902012009 | 64 | 156 | 0.0 | 0.0 | 0.00 | 0.01 | 0.01 | 95 | 1020.1 |
| 20260902011527 | 64 | 156 | 0.0 | 0.0 | 0.00 | 0.01 | 0.01 | 95 | 1020.0 |
| 20260902011010 | 64 | 156 | 0.0 | 0.0 | 0.00 | 0.01 | 0.01 | 95 | 1020.0 |
| 20260902010511 | 64 | 156 | 0.0 | 0.0 | 0.00 | 0.01 | 0.01 | 95 | 1020.1 |
| 20260902010026 | 64 | 156 | 0.0 | 0.0 | 0.00 | 0.01 | 0.01 | 95 | 1020.1 |
| 20260902005503 | 64 | 156 | 0.0 | 0.0 | 0.00 | 0.01 | 0.01 | 95 | 1020.0 |
| 20260902005005 | 64 | 156 | 0.0 | 0.0 | 0.00 | 0.01 | 0.01 | 95 | 1020.0 |
| 20260902004507 | 64 | 156 | 0.0 | 0.0 | 0.00 | 0.01 | 0.01 | 95 | 1019.9 |
| 20260902004004 | 64 | 156 | 0.0 | 0.0 | 0.00 | 0.01 | 0.01 | 95 | 1019.8 |
| 20260902003506 | 64 | 156 | 0.0 | 0.0 | 0.00 | 0.01 | 0.01 | 95 | 1019.8 |
| 20260902003011 | 64 | 156 | 0.0 | 0.0 | 0.00 | 0.01 | 0.01 | 95 | 1019.7 |
| 20260902002507 | 64 | 156 | 0.0 | 0.0 | 0.00 | 0.01 | 0.01 | 95 | 1019.8 |
| 20260902002008 | 64 | 156 | 0.0 | 0.0 | 0.00 | 0.01 | 0.01 | 95 | 1019.8 |
| 20260902001534 | 64 | 156 | 0.0 | 0.0 | 0.00 | 0.01 | 0.01 | 95 | 1019.6 |
| 20260902001008 | 64 | 156 | 0.0 | 0.0 | 0.00 | 0.01 | 0.01 | 95 | 1019.5 |
| 20260902000510 | 64 | 156 | 0.0 | 0.0 | 0.00 | 0.01 | 0.01 | 95 | 1019.5 |
| 20260902000029 | 64 | 156 | 0.0 | 0.0 | 0.00 | 0.01 | 0.01 | 95 | 1019.5 |
| 20260901235513 | 64 | 156 | 0.0 | 0.0 | 0.00 | 0.01 | 0.01 | 95 | 1019.4 |
| 20260901235013 | 64 | 156 | 0.0 | 0.0 | 0.00 | 0.01 | 0.01 | 95 | 1019.4 |
| 20260901234529 | 64 | 156 | 0.0 | 0.0 | 0.00 | 0.01 | 0.01 | 95 | 1019.4 |
| 20260901234017 | 64 | 156 | 0.0 | 0.0 | 0.00 | 0.01 | 0.01 | 95 | 1019.5 |
| 20260901233504 | 64 | 156 | 0.0 | 0.0 | 0.00 | 0.01 | 0.01 | 95 | 1019.5 |
| 20260901233008 | 64 | 156 | 0.0 | 0.0 | 0.00 | 0.01 | 0.01 | 95 | 1019.6 |
| 20260901232506 | 64 | 156 | 0.0 | 0.0 | 0.00 | 0.01 | 0.01 | 95 | 1019.7 |
| 20260901232007 | 64 | 156 | 0.0 | 0.0 | 0.00 | 0.01 | 0.01 | 95 | 1019.7 |
| 20260901231515 | 64 | 156 | 0.0 | 0.0 | 0.00 | 0.01 | 0.01 | 95 | 1019.7 |
| 20260901231011 | 64 | 156 | 0.0 | 0.0 | 0.00 | 0.01 | 0.01 | 95 | 1019.7 |
| 20260901230511 | 64 | 156 | 0.0 | 0.0 | 0.00 | 0.01 | 0.01 | 94 | 1019.7 |
| 20260901230023 | 64 | 156 | 0.0 | 0.0 | 0.00 | 0.01 | 0.01 | 94 | 1019.5 |
| 20260901225511 | 64 | 156 | 0.0 | 0.0 | 0.00 | 0.01 | 0.01 | 94 | 1019.5 |
| 20260901225014 | 64 | 156 | 0.0 | 0.0 | 0.00 | 0.01 | 0.01 | 94 | 1019.5 |
| 20260901224526 | 64 | 156 | 0.0 | 0.0 | 0.00 | 0.01 | 0.01 | 94 | 1019.5 |
| 20260901224012 | 64 | 156 | 0.0 | 0.0 | 0.00 | 0.01 | 0.01 | 94 | 1019.5 |
| 20260901223512 | 64 | 156 | 0.0 | 0.0 | 0.00 | 0.01 | 0.01 | 93 | 1019.4 |
| 20260901223032 | 64 | 156 | 0.0 | 0.0 | 0.00 | 0.01 | 0.01 | 93 | 1019.4 |
| 20260901222514 | 64 | 156 | 0.0 | 0.0 | 0.00 | 0.01 | 0.01 | 93 | 1019.4 |
| 20260901222014 | 64 | 156 | 0.0 | 0.0 | 0.00 | 0.01 | 0.01 | 93 | 1019.4 |
| 20260901221512 | 64 | 156 | 0.0 | 0.0 | 0.00 | 0.01 | 0.01 | 93 | 1019.4 |
| 20260901221005 | 64 | 156 | 0.0 | 2.0 | 0.00 | 0.01 | 0.01 | 93 | 1019.4 |
| 20260901220505 | 65 | 172 | 0.0 | 3.0 | 0.00 | 0.01 | 0.01 | 93 | 1019.4 |
| 20260901220020 | 65 | 200 | 0.0 | 3.0 | 0.00 | 0.01 | 0.01 | 93 | 1019.3 |
| 20260901215511 | 65 | 200 | 0.0 | 0.0 | 0.00 | 0.01 | 0.01 | 94 | 1019.3 |